Tracking 29932 objects as of 3-Dec-2024
HD Live streaming from Space Station
objects crossing your sky now

STARLINK-31954

Track STARLINK-31954 now!
10-day predictions
STARLINK-31954 is classified as:


NORAD ID: 60102
Int'l Code: 2024-117M
Perigee: 481.5 km
Apogee: 483.2 km
Inclination: 53.2 °
Period: 94.1 minutes
Semi major axis: 6853 km
RCS: Unknown
Launch date: June 23, 2024
Source: United States (US)
Launch site: AIR FORCE EASTERN TEST RANGE (AFETR)
Your satellite tracking list
Your tracking list is empty




NASA's NSSDC Master Catalog

Two Line Element Set (TLE):
1 60102U 24117M   24338.43612024 -.00004892  00000-0 -15315-3 0  9999
2 60102  53.1598  19.8046 0001239 106.5693 253.5444 15.30199859 26268
Source of the keplerian elements: AFSPC